sat.trackr.live / text

‹ back to catalog

STARLINK-36974

NORAD 68272 · 2026-055L

PAYLOAD ACTIVE UNKNOWN

§ Identity

Operator
Country
US
Launch date
2026-03-19
Launch site
AFETR
Launch vehicle
Mass (kg)
RCS (m²)

Purposes: comms

External: N2YO · Heavens-Above · Gunter

§ Orbital elements

Epoch: 2026-05-24T21:46:56.196768Z

Period
93.85 min
Inclination
53.1601°
Eccentricity
0.0001052
Mean motion
15.34400969 rev/d
Perigee alt
462.0 km
Apogee alt
463.4 km
Semi-major
6,840.8 km
B*
9.3880e-4
RAAN
326.4564°
Arg perigee
69.3917°
Mean anomaly
290.7198°
Rev number
1,158

§ Raw data

STARLINK-369741 68272U 26055L   26144.90759487  .00031477  00000+0  93880-3 0  99912 68272  53.1601 326.4564 0001052  69.3917 290.7198 15.34400969 11588

JSON: /api/v1/satellites/68272 · /tle

For live sub-satellite position, see the globe view (requires WebGL).

§ Visibility from observer

Set your observer location to see the next 7 days of passes ≥ 10°. The values pass through the URL so the page stays shareable.

No JS? Fill the form by hand. The geolocation button needs JavaScript.